This demonstration page uses our WeatherBlox Daily Observations layout. Learn more.

Left ArrowRight Arrow

Hourly Observations for May 6, 2019

Temp ( °F °C ) Dew Point ( °F °C ) Humidity (%) Winds ( mph kmh ) Pressure ( in mb ) Visibility ( mi km ) Precip ( " mm )
12:52 am 00:52 Mostly Cloudy 61 16.1 49 9.4 65 65 SSE 8 13 29.90 1012 10 16 0.00 0.00
2:52 am 02:52 Cloudy 61 16.1 50 10 67 67 S 12 19 29.91 1013 10 16 0.00 0.00
3:52 am 03:52 Mostly Cloudy with Light Rain 61 16.1 52 11.1 72 72 S 8 13 29.90 1013 10 16 0.00 0.03
4:52 am 04:52 Cloudy with Light Rain 59 15 54 12.2 83 83 SSE 8 13 29.89 1012 10 16 0.02 0.51
5:52 am 05:52 Partly Cloudy 59 15 54 12.2 83 83 SSW 8 13 29.91 1013 10 16 0.01 0.25
6:06 am 06:06 Mostly Cloudy 59 15 54 12.2 83 83 SW 6 9 29.93 1013 10 16 0.00 0.00
6:21 am 06:21 Cloudy with Light Rain 58 14.4 54 12.2 87 87 SSW 7 11 29.93 1014 10 16 0.00 0.03
6:52 am 06:52 Cloudy with Light Rain 58 14.4 55 12.8 90 90 S 6 9 29.92 1013 7 11 0.02 0.51
7:52 am 07:52 Cloudy with Light Rain 58 14.4 55 12.8 90 90 SE 9 15 29.96 1014 10 16 0.04 1.02
8:52 am 08:52 Cloudy 60 15.6 55 12.8 84 84 Calm 29.96 1015 10 16 0.00 0.03
9:52 am 09:52 Cloudy 62 16.7 57 13.9 84 84 S 6 9 29.98 1015 10 16 0.00 0.00
10:52 am 10:52 Sunny 66 18.9 57 13.9 73 73 SE 7 11 29.98 1015 10 16 0.00 0.00
11:52 am 11:52 Sunny 69 20.6 58 14.4 68 68 SSE 8 13 29.99 1016 10 16 0.00 0.00
12:52 pm 12:52 Sunny 71 21.7 59 15 66 66 ESE 7 11 29.99 1016 10 16 0.00 0.00
1:52 pm 13:52 Sunny 74 23.3 57 13.9 56 56 VRB 5 7 29.97 1015 10 16 0.00 0.00
3:52 pm 15:52 Sunny 76 24.4 57 13.9 52 52 SE 8 13 29.94 1014 10 16 0.00 0.00
4:52 pm 16:52 Mostly Sunny 75 23.9 56 13.3 52 52 ESE 10 17 29.95 1014 10 16 0.00 0.00
5:52 pm 17:52 Sunny 74 23.3 57 13.9 56 56 SE 13 20 29.94 1014 10 16 0.00 0.00
6:52 pm 18:52 Sunny 73 22.8 53 11.7 50 50 ESE 12 19 29.94 1014 10 16 0.00 0.00
7:52 pm 19:52 Sunny 68 20 53 11.7 59 59 ESE 6 9 29.96 1015 10 16 0.00 0.00
8:52 pm 20:52 Clear 65 18.3 56 13.3 73 73 SE 10 17 29.98 1015 10 16 0.00 0.00
9:52 pm 21:52 Clear 65 18.3 57 13.9 76 76 SE 14 22 29.95 1014 10 16 0.00 0.00
10:52 pm 22:52 Clear 65 18.3 58 14.4 78 78 ESE 7 11 29.98 1015 10 16 0.00 0.00
11:52 pm 23:52 Clear 65 18.3 60 15.6 84 84 NE 3 6 30.01 1016 10 16 0.00 0.00

Powered by AerisWeather